Home > Weather > Jhabua > Past weeks

Flag for India Weather for the Past 2 Weeks in Jhabua, Madhya Pradesh, India

Now
104 °F

Scattered clouds.


Feels Like: 108 °F
Forecast: 79 / 103 °F
Wind: 8 mph from Southwest

Location: Ahmadabad Airport

Current Time: May 4, 2016 at 5:34:19 PM

Latest Report: May 4, 2016 at 4:30 PM


Visibility: 3 mi

Pressure: 29.65 "Hg

Humidity: 28%

Dew Point: 64 °F

Location of JhabuaLocation

Historic Weather in Jhabua — Graph

°F

Jhabua Temperature Yesterday

Maximum temperature yesterday: 111 °F (at 5:00 PM)
Minimum temperature yesterday: 81 °F (at 6:00 AM)
Average temperature yesterday: 96 °F

High & Low Weather Summary for the Past Weeks

 TemperatureHumidityPressure
High113 °F (Apr 29, 2:30 PM)74% (Apr 23, 6:30 AM)29.89 "Hg (Apr 23, 6:30 AM)
Low77 °F (Apr 21, 6:00 AM)9% (Apr 29, 3:30 PM)29.59 "Hg (Apr 23, 5:00 PM)
Average93 °F38%29.73 "Hg
* Reported Apr 19 3:30 PM — May 4 4:00 PM, Jhabua, Weather by CustomWeather, © 2016

Note: Actual official high and low records may vary slightly from our data, if they occured in-between our weather recording intervals... More about our weather records

Advertising

Jhabua Weather History for the Previous 24 Hours

Scroll right to see more
 ConditionsComfort  
Time TempWeatherWind HumidityBarometerVisibility
4:00 PM
Wed, May 4
102 °FScattered clouds.7 mph27%29.65 "Hg3 mi
3:30 PM100 °FScattered clouds.9 mph31%29.68 "Hg3 mi
2:30 PM102 °FScattered clouds.7 mph29%29.71 "Hg3 mi
1:30 PM100 °FScattered clouds.7 mph37%29.71 "Hg3 mi
1:00 PM99 °FScattered clouds.6 mph42%29.74 "Hg3 mi
12:30 PM99 °FScattered clouds.6 mph42%29.74 "Hg3 mi
11:30 AM97 °FPassing clouds.6 mph47%29.77 "Hg3 mi
11:00 AM95 °FPassing clouds.6 mph50%29.77 "Hg3 mi
10:30 AM93 °FPassing clouds.3 mph53%29.77 "Hg3 mi
10:00 AM91 °FPassing clouds.6 mph56%29.77 "Hg3 mi
9:00 AM88 °FHaze.6 mph59%29.77 "Hg2 mi
8:30 AM86 °FHaze.6 mph66%29.77 "Hg2 mi
8:00 AM84 °FHaze.7 mph66%29.74 "Hg2 mi
7:30 AM84 °FHaze.5 mph66%29.74 "Hg2 mi
7:00 AM82 °FHaze.5 mph70%29.71 "Hg2 mi
6:30 AM82 °FHaze.5 mph66%29.71 "Hg2 mi
6:00 AM82 °FClear.5 mph62%29.68 "Hg2 mi
5:30 AM84 °FPassing clouds.6 mph55%29.68 "Hg2 mi
5:00 AM84 °FPassing clouds.5 mph55%29.68 "Hg2 mi
4:30 AM84 °FPassing clouds.5 mph55%29.68 "Hg2 mi
4:00 AM86 °FPassing clouds.5 mph52%29.68 "Hg2 mi
3:30 AM88 °FPassing clouds.6 mph46%29.65 "Hg2 mi
3:00 AM88 °FPassing clouds.6 mph43%29.68 "Hg2 mi
2:30 AM88 °FPassing clouds.6 mph43%29.68 "Hg2 mi
2:00 AM90 °FPassing clouds.5 mph38%29.68 "Hg2 mi
1:30 AM90 °FPassing clouds.3 mph41%29.68 "Hg2 mi
1:00 AM88 °FPassing clouds.3 mph49%29.71 "Hg2 mi
12:30 AM88 °FPassing clouds.5 mph49%29.71 "Hg2 mi
11:30 PM
Tue, May 3
91 °FPassing clouds.5 mph41%29.71 "Hg2 mi
11:00 PM93 °FPassing clouds.8 mph36%29.71 "Hg2 mi
10:30 PM95 °FPassing clouds.5 mph32%29.71 "Hg2 mi
10:00 PM95 °FPassing clouds.7 mph32%29.71 "Hg2 mi
9:30 PM95 °FPassing clouds.9 mph32%29.68 "Hg2 mi
9:00 PM97 °FPassing clouds.6 mph30%29.68 "Hg2 mi
8:30 PM99 °FPassing clouds.9 mph29%29.68 "Hg2 mi
8:00 PM102 °FPassing clouds.9 mph24%29.68 "Hg2 mi
7:30 PM102 °FPassing clouds.7 mph20%29.65 "Hg2 mi
7:00 PM106 °FPassing clouds.6 mph18%29.65 "Hg3 mi
6:00 PM108 °FPassing clouds.7 mph16%29.65 "Hg4 mi
5:30 PM109 °FClear.6 mph17%29.65 "Hg4 mi
5:00 PM111 °FClear.5 mph16%29.65 "Hg4 mi
Weather by CustomWeather, © 2016

See weather overviewHow to use our weather pages